Content
SEND FEEDBACK

Daily
Averages
Monthly
Summary
United States of America

ANN ARBOR, MICHIGAN


Home > North America > United States > Michigan
Elevation: 759 feet     Latitude: 42 17N     Longitude: 083 43W

WEATHER
 
SELECT A DAY
Number of Records: 207,272;   Date Range: 1/1/95 - 10/30/14
 
SHARE

PRINT THIS DATA

[ ← Previous Day ]
WEATHER ALMANAC - APRIL 29, 2013
[ Next Day → ]
[ °C ]   °F
Weather ElementAverageHighLow
Temperature58.6 °F70 °F (4:53 pm)51.1 °F (5:53 am)
Dewpoint52.5 °F54 °F (10:53 pm)51.1 °F (4:53 am)
Humidity82.1 %100 % (1:53 am)53 % (4:53 pm)
Barometer29.90 in29.94 in (9:53 am)29.85 in (1:53 am)
Wind Speed4.8 mph10.4 mph (4:53 pm)
Weather ElementAverage
Visibility7.4 mi
Wind DirectionSSW (200.8 °)

Weather ElementTotal
Precipitation0.04 in
Heating Degree Days4.5 (Base 65)
Growing Degree Days10.6 (Base 50)
Averaged from 36 records on April 29, 2013
WEATHER CONDITIONS BREAKOUT
WIND DIRECTION BREAKOUT
WEATHER BY HOUR - APRIL 29, 2013
[ °C ]   °F
Local TimeTemperatureDewpointHumidityBarometerVisibilityWind DirectionWind SpeedGust SpeedPrecipitationEventsConditions
1:53 AM53.1 °F53.1 °F100 %29.85 in0.2 miCalmFogFog
2:35 AM53.6 °F53.6 °F100 %29.85 in1.5 miNW (310°)4.6 mphOvercast
2:48 AM53.6 °F53.6 °F100 %29.85 in2.5 miCalm0.01 inOvercast
2:53 AM53.1 °F53.1 °F100 %29.85 in2.5 miWest (280°)3.5 mph0.01 inOvercast
3:29 AM53.6 °F51.8 °F94 %29.85 in2.0 miWSW (250°)3.5 mph0.01 inRainLight Rain
3:53 AM53.1 °F53.1 °F100 %29.86 in3.0 miNW (310°)4.6 mph0.01 inOvercast
4:01 AM53.6 °F53.6 °F100 %29.85 in5.0 miNW (310°)5.8 mphOvercast
4:17 AM53.6 °F53.6 °F100 %29.86 in6.0 miWNW (300°)3.5 mphOvercast
4:53 AM52.0 °F51.1 °F97 %29.87 in6.0 miWest (280°)4.6 mphOvercast
5:12 AM51.8 °F51.8 °F100 %29.87 in7.0 miWNW (290°)6.9 mphOvercast
5:53 AM51.1 °F51.1 °F100 %29.88 in5.0 miWest (280°)3.5 mphOvercast
6:53 AM53.1 °F51.1 °F93 %29.90 in6.0 miWest (270°)3.5 mphOvercast
7:53 AM53.1 °F52.0 °F96 %29.91 in4.0 miCalmOvercast
8:53 AM54.0 °F52.0 °F93 %29.93 in5.0 miWest (260°)5.8 mphOvercast
9:16 AM55.4 °F53.6 °F94 %29.93 in7.0 miWest (260°)5.8 mphOvercast
9:23 AM55.4 °F53.6 °F94 %29.93 in7.0 miWest (270°)6.9 mphOvercast
9:53 AM57.0 °F53.1 °F87 %29.94 in9.0 miWest (270°)4.6 mphOvercast
9:59 AM55.4 °F53.6 °F94 %29.93 in9.0 miWNW (290°)4.6 mphOvercast
10:07 AM57.2 °F53.6 °F88 %29.94 in10.0 miWNW (290°)5.8 mphOvercast
10:53 AM59.0 °F52.0 °F78 %29.94 in10.0 miWNW (290°)6.9 mphOvercast
11:34 AM60.8 °F51.8 °F72 %29.94 in10.0 miVariable6.9 mphMostly Cloudy
11:53 AM61.0 °F51.1 °F70 %29.94 in10.0 miWest (280°)4.6 mphOvercast
12:37 PM64.4 °F51.8 °F64 %29.93 in10.0 miCalmOvercast
12:49 PM62.6 °F51.8 °F68 %29.93 in10.0 miCalmOvercast
12:53 PM63.0 °F52.0 °F67 %29.93 in10.0 miWNW (290°)5.8 mphOvercast
1:00 PM64.4 °F53.6 °F68 %29.93 in10.0 miSW (220°)6.9 mphOvercast
2:53 PM68.0 °F52.0 °F56 %29.91 in10.0 miSSE (150°)4.6 mphOvercast
3:53 PM68.0 °F52.0 °F56 %29.91 in10.0 miVariable3.5 mphMostly Cloudy
4:53 PM70.0 °F52.0 °F53 %29.89 in10.0 miSSW (210°)10.4 mphMostly Cloudy
5:53 PM69.1 °F52.0 °F54 %29.90 in10.0 miSouth (180°)9.2 mphScattered Clouds
6:53 PM68.0 °F52.0 °F56 %29.89 in10.0 miSouth (180°)8.1 mphPartly Cloudy
7:53 PM66.0 °F52.0 °F60 %29.90 in10.0 miSSW (200°)5.8 mphClear
8:53 PM63.0 °F51.1 °F65 %29.91 in10.0 miSouth (180°)4.6 mphClear
9:53 PM60.1 °F53.1 °F78 %29.92 in10.0 miSSE (160°)4.6 mphClear
10:53 PM60.1 °F54.0 °F80 %29.94 in10.0 miSouth (180°)6.9 mphScattered Clouds
11:53 PM60.1 °F54.0 °F80 %29.94 in10.0 miSouth (190°)6.9 mph0.00 inRainLight Rain
Hourly data recorded from KARB, located miles away from Ann Arbor, Michigan







STORIES FROM OUR PARTNERS